Date String (YYYY-MM-DD hh:mm:ss) UTC,Instrument flags,absolute air pressure of the measurement (hPa),sample flow rate (lpm),inlet stack bypass flow (lpm),air temperature of the measurement (°C),ambient temperature measured by the external sensor (°C),aerosol sample conditioner tube jacket temperature (°C),OPC LED temperature (°C),internal box temperature (°C),relative humidity of the measurement (%),span deviation,mass concentration of particles derived from Lorenz-Mie calculation of OPC scattering (μg/m³),mass concentration of particles derived from Lorenz-Mie calculation of OPC scattering (μg/m³),mass concentration of particles derived from Lorenz-Mie calculation of OPC scattering (μg/m³)
DateTimeUTC,F1_M11,P_M11,Q1_M11,Q2_M11,T1_M11,T2_M11,T3_M11,T4_M11,T5_M11,U1_M11,ZSPAN_M11,X0_M11,X2_M11,X1_M11
2023-12-20 21:00:00,SystemResetWarning,0828.8,4.99,000.00,026.0,024.8,000.0,034.2,027.4,11.3,0000.0,0016.22,0004.48,0003.78
2023-12-20 21:01:00,SystemResetWarning,0828.8,5.00,000.00,026.0,024.9,000.0,034.3,027.5,11.2,0000.0,0015.18,0004.54,0003.81
2023-12-20 21:02:00,SystemResetWarning,0828.8,5.00,000.00,026.0,025.0,000.0,034.2,027.5,11.2,0000.0,0013.84,0004.59,0003.83
2023-12-20 21:03:00,SystemResetWarning,0828.8,5.01,000.00,026.1,025.1,000.0,034.3,027.5,11.1,0000.0,0013.87,0004.64,0003.86
2023-12-20 21:04:00,SystemResetWarning,0828.8,5.00,000.00,026.1,025.2,000.0,034.3,027.6,11.2,0000.0,0013.84,0004.70,0003.89
2023-12-20 21:05:00,SystemResetWarning,0828.8,5.01,000.00,026.1,025.2,000.0,034.3,027.6,11.1,0000.0,0013.03,0004.72,0003.91
2023-12-20 21:06:00,SystemResetWarning,0828.8,5.00,000.00,026.2,025.3,000.0,034.3,027.6,11.2,0000.0,0013.83,0004.75,0003.93
2023-12-20 21:07:00,SystemResetWarning,0828.8,5.00,000.00,026.2,025.3,000.0,034.3,027.7,11.3,0000.0,0014.63,0004.81,0003.95
2023-12-20 21:08:00,SystemResetWarning,0828.8,4.99,000.00,026.2,025.4,000.0,034.3,027.7,11.1,0000.0,0013.59,0004.81,0003.95
2023-12-20 21:09:00,SystemResetWarning,0828.8,4.99,000.00,026.2,025.4,000.0,034.3,027.7,10.9,0000.0,0013.48,0004.84,0003.95
2023-12-20 21:10:00,SystemResetWarning,0828.8,4.99,000.00,026.3,025.5,000.0,034.4,027.7,10.9,0000.0,0012.99,0004.91,0003.96
2023-12-20 21:11:00,SystemResetWarning,0828.8,5.00,000.00,026.3,025.5,000.0,034.4,027.7,10.8,0000.1,0014.13,0004.93,0003.97
2023-12-20 21:12:00,SystemResetWarning,0828.8,5.01,000.00,026.3,025.5,000.0,034.4,027.8,10.7,0000.4,0014.79,0004.96,0003.98
2023-12-20 21:13:00,SystemResetWarning,0828.9,5.02,000.00,026.3,025.6,000.0,034.4,027.8,10.8,0001.0,0015.24,0004.97,0003.98
2023-12-20 21:14:00,SystemResetWarning,0828.9,4.99,000.00,026.4,025.6,000.0,034.4,027.8,10.8,0001.2,0016.69,0004.94,0003.94
2023-12-20 21:15:00,SystemResetWarning,0828.8,5.00,000.00,026.4,025.6,000.0,034.5,027.9,10.9,0002.0,0016.86,0004.88,0003.89
2023-12-20 21:16:00,SystemResetWarning,0828.9,5.00,000.00,026.4,025.6,000.0,034.5,027.9,10.9,0002.3,0017.47,0004.79,0003.83
2023-12-20 21:17:00,SystemResetWarning,0828.8,5.00,000.00,026.4,025.7,000.0,034.5,027.9,10.9,0001.5,0016.56,0004.72,0003.79
2023-12-20 21:18:00,SystemResetWarning,0828.9,5.00,000.00,026.4,025.7,000.0,034.5,027.9,11.0,0002.2,0015.69,0004.68,0003.76
2023-12-20 21:19:00,SystemResetWarning,0828.9,4.99,000.00,026.5,025.3,000.0,034.5,028.0,10.9,0004.4,0015.93,0004.64,0003.73
2023-12-20 21:20:00,SystemResetWarning,0828.8,5.00,000.00,026.4,023.3,000.0,034.5,027.8,10.9,0004.4,0015.83,0004.60,0003.71
2023-12-20 21:21:00,SystemResetWarning,0828.8,5.01,000.00,026.3,022.6,000.0,034.5,027.6,11.0,0003.8,0015.59,0004.54,0003.72
2023-12-20 21:22:00,SystemResetWarning,0828.8,5.01,000.00,026.2,022.8,000.0,034.4,027.1,11.0,0004.0,0014.13,0004.47,0003.71
2023-12-20 21:23:00,SystemResetWarning,0828.8,5.00,000.00,026.0,023.1,000.0,034.4,027.0,11.1,0004.7,0013.95,0004.44,0003.70
2023-12-20 21:24:00,SystemResetWarning,0828.8,5.00,000.00,026.0,023.5,000.0,034.4,027.0,10.9,0002.9,0013.90,0004.45,0003.70
2023-12-20 21:25:00,SystemResetWarning,0828.8,5.00,000.00,026.0,023.8,000.0,034.3,027.1,10.9,0002.7,0012.44,0004.48,0003.73
2023-12-20 21:26:00,SystemResetWarning,0828.8,5.00,000.00,026.0,024.1,000.0,034.3,027.2,11.1,0003.6,0013.69,0004.58,0003.78
2023-12-20 21:27:00,SystemResetWarning,0828.8,4.99,000.00,026.0,024.3,000.0,034.3,027.3,10.9,0004.5,0014.40,0004.69,0003.84
2023-12-20 21:28:00,SystemResetWarning,0828.8,5.00,000.00,026.0,024.5,000.0,034.3,027.3,10.9,0004.6,0015.53,0004.77,0003.86
2023-12-20 21:29:00,SystemResetWarning,0828.9,4.99,000.00,026.0,024.6,000.0,034.3,027.3,10.9,0003.5,0016.09,0004.80,0003.88
2023-12-20 21:30:00,SystemResetWarning,0828.8,5.02,000.00,026.0,024.8,000.0,034.3,027.4,10.9,0002.8,0016.78,0004.82,0003.89
2023-12-20 21:31:00,SystemResetWarning,0828.8,5.00,000.00,026.0,024.9,000.0,034.3,027.4,11.0,0003.3,0016.80,0004.81,0003.89
2023-12-20 21:32:00,SystemResetWarning,0828.8,4.99,000.00,026.1,025.0,000.0,034.3,027.5,10.8,0003.2,0016.77,0004.78,0003.86
2023-12-20 21:33:00,SystemResetWarning,0828.8,4.99,000.00,026.1,025.1,000.0,034.3,027.5,10.8,0001.5,0016.31,0004.76,0003.83
2023-12-20 21:34:00,SystemResetWarning,0828.8,5.01,000.00,026.1,025.1,000.0,034.3,027.6,10.9,-000.6,0015.39,0004.70,0003.79
2023-12-20 21:35:00,SystemResetWarning,0828.8,5.01,000.00,026.1,025.2,000.0,034.3,027.6,10.7,-001.9,0014.81,0004.63,0003.75
2023-12-20 21:36:00,SystemResetWarning,0828.8,5.00,000.00,026.2,025.3,000.0,034.3,027.6,10.9,-001.2,0015.20,0004.56,0003.70
2023-12-20 21:37:00,SystemResetWarning,0828.8,4.99,000.00,026.2,025.3,000.0,034.3,027.6,10.6,-001.0,0015.20,0004.48,0003.65
2023-12-20 21:38:00,SystemResetWarning,0828.8,5.00,000.00,026.2,025.4,000.0,034.3,027.7,10.7,-002.6,0014.02,0004.36,0003.59
2023-12-20 21:39:00,SystemResetWarning,0828.9,4.99,000.00,026.2,025.4,000.0,034.4,027.7,10.7,-002.9,0012.89,0004.29,0003.56
2023-12-20 21:40:00,SystemResetWarning,0828.9,5.00,000.00,026.3,025.4,000.0,034.4,027.7,10.7,-003.1,0012.12,0004.23,0003.51
2023-12-20 21:41:00,SystemResetWarning,0829.0,4.99,000.00,026.3,025.5,000.0,034.4,027.8,10.8,-003.5,0010.71,0004.19,0003.47
2023-12-20 21:42:00,SystemResetWarning,0829.0,5.00,000.00,026.3,025.5,000.0,034.4,027.8,10.8,-003.7,0010.59,0004.17,0003.44
2023-12-20 21:43:00,SystemResetWarning,0829.0,5.00,000.00,026.3,025.5,000.0,034.4,027.8,10.8,-001.7,0010.49,0004.12,0003.42
2023-12-20 21:44:00,SystemResetWarning,0828.9,5.00,000.00,026.4,025.6,000.0,034.4,027.8,10.8,0000.0,0010.72,0004.09,0003.40
2023-12-20 21:45:00,SystemResetWarning,0828.9,5.00,000.00,026.4,025.6,000.0,034.5,027.9,10.8,0000.0,0011.29,0004.11,0003.39
2023-12-20 21:46:00,SystemResetWarning,0828.9,5.00,000.00,026.4,025.6,000.0,034.5,027.9,10.7,0000.0,0012.63,0004.13,0003.38
2023-12-20 21:47:00,SystemResetWarning,0828.9,5.00,000.00,026.4,025.6,000.0,034.5,027.9,10.6,0000.0,0012.28,0004.09,0003.37
2023-12-20 21:48:00,SystemResetWarning,0828.9,5.00,000.00,026.4,024.9,000.0,034.5,027.9,10.6,0000.0,0011.77,0004.05,0003.36
2023-12-20 21:49:00,SystemResetWarning,0829.0,5.00,000.00,026.4,023.0,000.0,034.5,027.7,10.7,0000.0,0011.74,0004.05,0003.36
2023-12-20 21:50:00,SystemResetWarning,0828.9,5.00,000.00,026.3,022.5,000.0,034.4,027.5,10.8,0000.0,0011.56,0004.02,0003.36
2023-12-20 21:51:00,SystemResetWarning,0829.0,5.01,000.00,026.1,022.8,000.0,034.4,027.0,11.0,0000.0,0011.59,0004.02,0003.38
2023-12-20 21:52:00,SystemResetWarning,0829.0,5.01,000.00,026.0,023.1,000.0,034.4,026.9,11.0,0000.0,0012.10,0004.03,0003.40
2023-12-20 21:53:00,SystemResetWarning,0828.9,4.99,000.00,026.0,023.5,000.0,034.3,027.0,11.0,0000.0,0013.63,0004.08,0003.41
2023-12-20 21:54:00,SystemResetWarning,0828.9,5.00,000.00,025.9,023.8,000.0,034.3,027.1,11.0,0000.0,0015.02,0004.14,0003.43
2023-12-20 21:55:00,SystemResetWarning,0829.0,5.00,000.00,025.9,024.0,000.0,034.2,027.1,11.1,0000.0,0015.69,0004.19,0003.45
2023-12-20 21:56:00,SystemResetWarning,0828.9,5.01,000.00,025.9,024.3,000.0,034.2,027.2,11.1,0000.0,0015.85,0004.17,0003.44
2023-12-20 21:57:00,SystemResetWarning,0829.0,5.01,000.00,025.9,024.4,000.0,034.2,027.3,11.1,0000.0,0015.33,0004.15,0003.45
2023-12-20 21:58:00,SystemResetWarning,0829.0,4.99,000.00,026.0,024.6,000.0,034.2,027.3,11.1,0000.0,0015.85,0004.24,0003.47
2023-12-20 21:59:00,SystemResetWarning,0829.1,4.99,000.00,026.0,024.7,000.0,034.2,027.4,11.0,0000.0,0015.83,0004.32,0003.49
